Time,TemperatureF,DewpointF,PressureIn,WindDirection,WindDirectionDegrees,WindSpeedMPH,WindSpeedGustMPH,Humidity,HourlyPrecipIn,Conditions,Clouds,dailyrainin,SoftwareType,DateUTC
2013-07-09 00:01:00,74.5,70.1,29.97,SE,135,2.2,2.2,86,0.00,,,0.00,WUHU216HW,2013-07-09 05:01:00,
2013-07-09 00:06:00,74.5,70.5,29.96,SE,135,1.6,2.2,87,0.00,,,0.00,WUHU216HW,2013-07-09 05:06:00,
2013-07-09 00:11:00,74.5,70.1,29.96,SE,135,1.1,2.0,86,0.00,,,0.00,WUHU216HW,2013-07-09 05:11:00,
2013-07-09 00:16:00,74.3,69.9,29.97,South,180,2.5,3.4,86,0.00,,,0.00,WUHU216HW,2013-07-09 05:16:00,
2013-07-09 00:21:00,74.2,69.8,29.97,SSW,203,1.6,3.4,86,0.00,,,0.00,WUHU216HW,2013-07-09 05:21:00,
2013-07-09 00:26:00,74.2,69.8,29.97,ENE,68,2.7,2.7,86,0.00,,,0.00,WUHU216HW,2013-07-09 05:26:00,
2013-07-09 00:31:00,74.2,69.8,29.98,SSE,158,0.0,2.7,86,0.00,,,0.00,WUHU216HW,2013-07-09 05:31:00,
2013-07-09 00:36:00,74.0,69.6,29.97,ESE,113,0.9,1.1,86,0.00,,,0.00,WUHU216HW,2013-07-09 05:36:00,
2013-07-09 00:41:00,73.8,69.4,29.97,ESE,113,0.4,2.9,86,0.00,,,0.00,WUHU216HW,2013-07-09 05:41:00,
2013-07-09 00:46:00,73.8,69.4,29.97,ESE,113,0.7,2.9,86,0.00,,,0.00,WUHU216HW,2013-07-09 05:46:00,
2013-07-09 00:51:00,73.6,69.6,29.97,ESE,113,0.4,2.2,87,0.00,,,0.00,WUHU216HW,2013-07-09 05:51:00,
2013-07-09 00:56:00,73.4,69.4,29.97,SE,135,2.7,2.7,87,0.00,,,0.00,WUHU216HW,2013-07-09 05:56:00,
2013-07-09 01:01:00,73.3,69.2,29.97,ESE,113,0.0,3.4,87,0.00,,,0.00,WUHU216HW,2013-07-09 06:01:00,
2013-07-09 01:06:00,73.1,69.0,29.97,South,180,0.0,3.4,87,0.00,,,0.00,WUHU216HW,2013-07-09 06:06:00,
2013-07-09 01:11:00,73.1,68.7,29.97,WSW,248,0.2,0.7,86,0.00,,,0.00,WUHU216HW,2013-07-09 06:11:00,
2013-07-09 01:16:00,72.9,68.5,29.97,SE,135,0.0,0.4,86,0.00,,,0.00,WUHU216HW,2013-07-09 06:16:00,
2013-07-09 01:21:00,72.7,68.3,29.97,SSE,158,0.7,0.7,86,0.00,,,0.00,WUHU216HW,2013-07-09 06:21:00,
2013-07-09 01:26:00,72.5,68.1,29.97,SE,135,0.9,1.1,86,0.00,,,0.00,WUHU216HW,2013-07-09 06:26:00,
2013-07-09 01:31:00,72.4,68.3,29.96,SE,135,2.9,2.9,87,0.00,,,0.00,WUHU216HW,2013-07-09 06:31:00,
2013-07-09 01:36:00,72.4,68.3,29.96,SE,135,2.0,2.9,87,0.00,,,0.00,WUHU216HW,2013-07-09 06:36:00,
2013-07-09 01:41:00,72.4,68.3,29.96,SE,135,0.7,2.0,87,0.00,,,0.00,WUHU216HW,2013-07-09 06:41:00,
2013-07-09 01:46:00,72.2,68.1,29.96,SE,135,0.7,1.8,87,0.00,,,0.00,WUHU216HW,2013-07-09 06:46:00,
2013-07-09 01:51:00,72.2,68.1,29.96,SE,135,0.4,1.8,87,0.00,,,0.00,WUHU216HW,2013-07-09 06:51:00,
2013-07-09 01:56:00,72.0,68.2,29.96,East,90,0.4,2.0,88,0.00,,,0.00,WUHU216HW,2013-07-09 06:56:00,
2013-07-09 02:01:00,72.0,68.2,29.96,East,90,2.5,2.5,88,0.00,,,0.00,WUHU216HW,2013-07-09 07:01:00,
2013-07-09 02:06:00,72.0,68.2,29.95,East,90,2.7,2.7,88,0.00,,,0.00,WUHU216HW,2013-07-09 07:06:00,
2013-07-09 02:11:00,72.0,68.2,29.95,ESE,113,0.9,2.7,88,0.00,,,0.00,WUHU216HW,2013-07-09 07:11:00,
2013-07-09 02:16:00,71.8,68.0,29.95,SSE,158,1.1,2.7,88,0.00,,,0.00,WUHU216HW,2013-07-09 07:16:00,
2013-07-09 02:21:00,71.6,67.6,29.96,SSE,158,0.7,1.3,87,0.00,,,0.00,WUHU216HW,2013-07-09 07:21:00,
2013-07-09 02:26:00,71.6,67.6,29.95,ENE,68,0.4,1.1,87,0.00,,,0.00,WUHU216HW,2013-07-09 07:26:00,
2013-07-09 02:31:00,71.6,67.6,29.96,SW,225,0.9,1.8,87,0.00,,,0.00,WUHU216HW,2013-07-09 07:31:00,
2013-07-09 02:36:00,71.5,67.4,29.95,SSW,203,0.2,1.8,87,0.00,,,0.00,WUHU216HW,2013-07-09 07:36:00,
2013-07-09 02:41:00,71.3,67.2,29.95,South,180,0.7,0.9,87,0.00,,,0.00,WUHU216HW,2013-07-09 07:41:00,
2013-07-09 02:46:00,71.1,67.1,29.96,SE,135,0.4,1.3,87,0.00,,,0.00,WUHU216HW,2013-07-09 07:46:00,
2013-07-09 02:52:00,70.9,66.9,29.95,ESE,113,0.2,1.3,87,0.00,,,0.00,WUHU216HW,2013-07-09 07:52:00,
2013-07-09 02:57:00,70.9,66.9,29.95,SSW,203,0.2,1.1,87,0.00,,,0.00,WUHU216HW,2013-07-09 07:57:00,
2013-07-09 03:02:00,70.7,67.0,29.95,SSW,203,0.4,0.9,88,0.00,,,0.00,WUHU216HW,2013-07-09 08:02:00,
2013-07-09 03:07:00,70.7,67.0,29.96,SSW,203,0.0,0.9,88,0.00,,,0.00,WUHU216HW,2013-07-09 08:07:00,
2013-07-09 03:12:00,70.6,66.8,29.96,SSW,203,0.4,0.7,88,0.00,,,0.00,WUHU216HW,2013-07-09 08:12:00,
2013-07-09 03:17:00,70.4,66.6,29.95,SSE,158,0.0,0.4,88,0.00,,,0.00,WUHU216HW,2013-07-09 08:17:00,
2013-07-09 03:22:00,70.2,66.4,29.96,SSW,203,0.0,1.1,88,0.00,,,0.00,WUHU216HW,2013-07-09 08:22:00,
2013-07-09 03:27:00,70.2,66.4,29.95,SSW,203,0.0,1.1,88,0.00,,,0.00,WUHU216HW,2013-07-09 08:27:00,
2013-07-09 03:32:00,70.0,66.2,29.95,WNW,293,0.0,0.0,88,0.00,,,0.00,WUHU216HW,2013-07-09 08:32:00,
2013-07-09 03:37:00,70.0,66.2,29.95,ENE,68,0.2,0.7,88,0.00,,,0.00,WUHU216HW,2013-07-09 08:37:00,
2013-07-09 03:42:00,69.8,66.1,29.95,SSE,158,0.2,0.7,88,0.00,,,0.00,WUHU216HW,2013-07-09 08:42:00,
2013-07-09 03:47:00,69.8,66.1,29.95,SW,225,0.0,0.7,88,0.00,,,0.00,WUHU216HW,2013-07-09 08:47:00,
2013-07-09 03:52:00,69.7,65.9,29.95,West,270,0.0,0.4,88,0.00,,,0.00,WUHU216HW,2013-07-09 08:52:00,
2013-07-09 03:57:00,69.7,65.9,29.95,West,270,0.0,0.4,88,0.00,,,0.00,WUHU216HW,2013-07-09 08:57:00,
2013-07-09 04:02:00,69.5,65.7,29.95,West,270,0.0,0.0,88,0.00,,,0.00,WUHU216HW,2013-07-09 09:02:00,
2013-07-09 04:07:00,69.5,66.1,29.95,SSE,158,0.4,0.4,89,0.00,,,0.00,WUHU216HW,2013-07-09 09:07:00,
2013-07-09 04:12:00,69.3,65.9,29.95,East,90,0.2,1.1,89,0.00,,,0.00,WUHU216HW,2013-07-09 09:12:00,
2013-07-09 04:17:00,69.1,65.7,29.94,East,90,0.0,1.1,89,0.00,,,0.00,WUHU216HW,2013-07-09 09:17:00,
2013-07-09 04:22:00,69.1,65.7,29.94,SSW,203,0.0,0.4,89,0.00,,,0.00,WUHU216HW,2013-07-09 09:22:00,
2013-07-09 04:27:00,69.1,65.7,29.93,South,180,1.1,2.0,89,0.00,,,0.00,WUHU216HW,2013-07-09 09:27:00,
2013-07-09 04:32:00,68.9,65.5,29.93,SW,225,0.0,2.0,89,0.00,,,0.00,WUHU216HW,2013-07-09 09:32:00,
2013-07-09 04:37:00,68.9,65.9,29.94,South,180,0.2,1.8,90,0.00,,,0.00,WUHU216HW,2013-07-09 09:37:00,
2013-07-09 04:42:00,69.1,66.1,29.94,SSE,158,0.7,1.3,90,0.00,,,0.00,WUHU216HW,2013-07-09 09:42:00,
2013-07-09 04:47:00,69.1,66.1,29.94,SSE,158,0.9,2.2,90,0.00,,,0.00,WUHU216HW,2013-07-09 09:47:00,
2013-07-09 04:52:00,69.1,66.1,29.93,SSE,158,0.2,2.2,90,0.00,,,0.00,WUHU216HW,2013-07-09 09:52:00,
2013-07-09 04:57:00,69.1,66.1,29.93,ESE,113,0.9,2.0,90,0.00,,,0.00,WUHU216HW,2013-07-09 09:57:00,
2013-07-09 05:02:00,69.3,66.2,29.93,WNW,293,0.0,1.6,90,0.00,,,0.00,WUHU216HW,2013-07-09 10:02:00,
2013-07-09 05:07:00,69.1,66.1,29.93,SSW,203,1.1,1.1,90,0.00,,,0.00,WUHU216HW,2013-07-09 10:07:00,
2013-07-09 05:12:00,69.1,66.1,29.93,SSE,158,0.4,1.1,90,0.00,,,0.00,WUHU216HW,2013-07-09 10:12:00,
2013-07-09 05:17:00,69.3,66.2,29.93,NNE,23,1.1,1.3,90,0.00,,,0.00,WUHU216HW,2013-07-09 10:17:00,
2013-07-09 05:22:00,69.3,66.2,29.93,South,180,0.4,1.3,90,0.00,,,0.00,WUHU216HW,2013-07-09 10:22:00,
2013-07-09 05:27:00,69.3,66.2,29.93,WSW,248,0.4,1.1,90,0.00,,,0.00,WUHU216HW,2013-07-09 10:27:00,
2013-07-09 05:32:00,69.3,66.2,29.93,WNW,293,0.0,1.8,90,0.00,,,0.00,WUHU216HW,2013-07-09 10:32:00,
2013-07-09 05:37:00,69.3,66.2,29.93,SE,135,0.0,1.8,90,0.00,,,0.00,WUHU216HW,2013-07-09 10:37:00,
2013-07-09 05:42:00,69.3,66.5,29.93,ESE,113,0.4,2.7,91,0.00,,,0.00,WUHU216HW,2013-07-09 10:42:00,
2013-07-09 05:47:00,69.7,66.9,29.93,SW,225,1.8,2.7,91,0.00,,,0.00,WUHU216HW,2013-07-09 10:47:00,
2013-07-09 05:52:00,70.0,67.2,29.93,SW,225,0.7,2.5,91,0.00,,,0.00,WUHU216HW,2013-07-09 10:52:00,
2013-07-09 05:57:00,70.0,67.2,29.93,SSW,203,1.6,4.0,91,0.00,,,0.00,WUHU216HW,2013-07-09 10:57:00,
2013-07-09 06:02:00,70.2,67.4,29.93,SSW,203,1.1,4.0,91,0.00,,,0.00,WUHU216HW,2013-07-09 11:02:00,
2013-07-09 06:07:00,70.2,67.4,29.93,SSE,158,2.0,3.4,91,0.00,,,0.00,WUHU216HW,2013-07-09 11:07:00,
2013-07-09 06:12:00,70.4,67.6,29.93,SE,135,1.8,3.4,91,0.00,,,0.00,WUHU216HW,2013-07-09 11:12:00,
2013-07-09 06:17:00,70.6,67.8,29.93,SE,135,1.3,4.0,91,0.00,,,0.00,WUHU216HW,2013-07-09 11:17:00,
2013-07-09 06:22:00,70.7,68.0,29.93,SSE,158,3.4,4.0,91,0.00,,,0.00,WUHU216HW,2013-07-09 11:22:00,
2013-07-09 06:27:00,70.9,67.9,29.93,SSE,158,1.1,3.4,90,0.00,,,0.00,WUHU216HW,2013-07-09 11:27:00,
2013-07-09 06:32:00,70.9,67.9,29.93,East,90,2.5,2.7,90,0.00,,,0.00,WUHU216HW,2013-07-09 11:32:00,
2013-07-09 06:37:00,71.1,68.0,29.93,SE,135,1.3,2.7,90,0.00,,,0.00,WUHU216HW,2013-07-09 11:37:00,
2013-07-09 06:42:00,71.3,68.2,29.93,SW,225,2.0,2.2,90,0.00,,,0.00,WUHU216HW,2013-07-09 11:42:00,
2013-07-09 06:47:00,71.5,68.4,29.94,SSE,158,4.0,4.0,90,0.00,,,0.00,WUHU216HW,2013-07-09 11:47:00,
2013-07-09 06:52:00,71.6,68.6,29.93,SSE,158,1.1,4.0,90,0.00,,,0.00,WUHU216HW,2013-07-09 11:52:00,
2013-07-09 06:57:00,71.6,68.6,29.93,SE,135,1.3,2.7,90,0.00,,,0.00,WUHU216HW,2013-07-09 11:57:00,
2013-07-09 07:02:00,71.8,68.4,29.93,SE,135,2.7,2.7,89,0.00,,,0.00,WUHU216HW,2013-07-09 12:02:00,
2013-07-09 07:07:00,71.8,68.4,29.93,West,270,1.1,4.9,89,0.00,,,0.00,WUHU216HW,2013-07-09 12:07:00,
2013-07-09 07:12:00,72.2,68.8,29.93,ESE,113,1.1,4.9,89,0.00,,,0.00,WUHU216HW,2013-07-09 12:12:00,
2013-07-09 07:17:00,72.4,68.9,29.93,ESE,113,1.1,2.2,89,0.00,,,0.00,WUHU216HW,2013-07-09 12:17:00,
2013-07-09 07:22:00,72.9,69.5,29.93,SSE,158,0.4,3.4,89,0.00,,,0.00,WUHU216HW,2013-07-09 12:22:00,
2013-07-09 07:27:00,72.9,69.1,29.92,SSW,203,4.3,4.5,88,0.00,,,0.00,WUHU216HW,2013-07-09 12:27:00,
2013-07-09 07:32:00,73.1,69.7,29.92,SSE,158,2.9,4.7,89,0.00,,,0.00,WUHU216HW,2013-07-09 12:32:00,
2013-07-09 07:37:00,73.1,69.7,29.92,South,180,7.6,7.6,89,0.00,,,0.00,WUHU216HW,2013-07-09 12:37:00,
2013-07-09 07:42:00,73.3,69.8,29.92,WSW,248,1.6,7.6,89,0.00,,,0.00,WUHU216HW,2013-07-09 12:42:00,
2013-07-09 07:47:00,73.4,70.0,29.92,South,180,2.9,6.7,89,0.00,,,0.00,WUHU216HW,2013-07-09 12:47:00,
2013-07-09 07:52:00,73.8,70.4,29.92,SE,135,1.6,4.9,89,0.00,,,0.00,WUHU216HW,2013-07-09 12:52:00,
2013-07-09 07:57:00,73.8,70.4,29.92,SSE,158,3.8,5.6,89,0.00,,,0.00,WUHU216HW,2013-07-09 12:57:00,
2013-07-09 08:02:00,74.2,70.7,29.92,SE,135,3.4,5.6,89,0.00,,,0.00,WUHU216HW,2013-07-09 13:02:00,
2013-07-09 08:07:00,74.2,70.7,29.92,ESE,113,2.5,5.4,89,0.00,,,0.00,WUHU216HW,2013-07-09 13:07:00,
2013-07-09 08:12:00,74.3,70.9,29.92,ESE,113,6.5,6.5,89,0.00,,,0.00,WUHU216HW,2013-07-09 13:12:00,
2013-07-09 08:17:00,74.7,70.9,29.92,ESE,113,3.4,6.5,88,0.00,,,0.00,WUHU216HW,2013-07-09 13:17:00,
2013-07-09 08:22:00,75.1,71.3,29.92,East,90,2.0,6.5,88,0.00,,,0.00,WUHU216HW,2013-07-09 13:22:00,
2013-07-09 08:27:00,75.8,72.0,29.91,ESE,113,4.0,5.1,88,0.00,,,0.00,WUHU216HW,2013-07-09 13:27:00,
2013-07-09 08:32:00,76.5,72.4,29.91,ESE,113,3.4,4.9,87,0.00,,,0.00,WUHU216HW,2013-07-09 13:32:00,
2013-07-09 08:37:00,76.7,72.2,29.91,SSE,158,4.7,4.7,86,0.00,,,0.00,WUHU216HW,2013-07-09 13:37:00,
2013-07-09 08:42:00,76.5,71.6,29.91,SE,135,5.4,5.4,85,0.00,,,0.00,WUHU216HW,2013-07-09 13:42:00,
2013-07-09 08:47:00,76.9,72.0,29.91,South,180,1.3,5.4,85,0.00,,,0.00,WUHU216HW,2013-07-09 13:47:00,
2013-07-09 08:52:00,77.8,72.9,29.91,SE,135,2.2,4.7,85,0.00,,,0.00,WUHU216HW,2013-07-09 13:52:00,
2013-07-09 08:57:00,78.1,73.3,29.91,SSE,158,2.5,5.1,85,0.00,,,0.00,WUHU216HW,2013-07-09 13:57:00,
2013-07-09 09:02:00,77.9,72.7,29.91,SSE,158,3.4,5.1,84,0.00,,,0.00,WUHU216HW,2013-07-09 14:02:00,
2013-07-09 09:08:00,77.9,72.7,29.91,SSE,158,2.9,4.0,84,0.00,,,0.00,WUHU216HW,2013-07-09 14:08:00,
2013-07-09 09:13:00,77.8,72.5,29.91,SSE,158,2.7,3.6,84,0.00,,,0.00,WUHU216HW,2013-07-09 14:13:00,
2013-07-09 09:18:00,77.8,72.5,29.92,SSE,158,3.1,4.5,84,0.00,,,0.00,WUHU216HW,2013-07-09 14:18:00,
2013-07-09 09:23:00,77.8,72.5,29.92,South,180,3.8,4.9,84,0.00,,,0.00,WUHU216HW,2013-07-09 14:23:00,
2013-07-09 09:28:00,77.8,72.5,29.92,SSE,158,0.4,4.9,84,0.00,,,0.00,WUHU216HW,2013-07-09 14:28:00,
2013-07-09 09:33:00,78.1,72.9,29.92,SSE,158,3.1,3.4,84,0.00,,,0.00,WUHU216HW,2013-07-09 14:33:00,
2013-07-09 09:38:00,78.5,73.3,29.92,SSW,203,4.0,6.5,84,0.00,,,0.00,WUHU216HW,2013-07-09 14:38:00,
2013-07-09 09:43:00,78.8,73.6,29.92,SSE,158,6.3,6.5,84,0.00,,,0.00,WUHU216HW,2013-07-09 14:43:00,
2013-07-09 09:48:00,78.8,73.3,29.92,SSW,203,3.1,6.3,83,0.00,,,0.00,WUHU216HW,2013-07-09 14:48:00,
2013-07-09 09:53:00,79.0,73.5,29.91,South,180,4.0,6.5,83,0.00,,,0.00,WUHU216HW,2013-07-09 14:53:00,
2013-07-09 09:58:00,78.8,73.3,29.91,SSW,203,5.4,6.5,83,0.00,,,0.00,WUHU216HW,2013-07-09 14:58:00,
2013-07-09 10:03:00,78.7,73.1,29.91,SSE,158,3.1,6.5,83,0.00,,,0.00,WUHU216HW,2013-07-09 15:03:00,
2013-07-09 10:08:00,78.5,72.9,29.90,SSE,158,2.2,6.5,83,0.00,,,0.00,WUHU216HW,2013-07-09 15:08:00,
2013-07-09 10:13:00,78.7,73.4,29.90,SSE,158,1.6,4.0,84,0.00,,,0.00,WUHU216HW,2013-07-09 15:13:00,
2013-07-09 10:18:00,78.7,73.1,29.90,SE,135,5.8,5.8,83,0.00,,,0.00,WUHU216HW,2013-07-09 15:18:00,
2013-07-09 10:23:00,78.3,73.1,29.91,WSW,248,1.1,5.8,84,0.00,,,0.00,WUHU216HW,2013-07-09 15:23:00,
2013-07-09 10:28:00,78.1,72.9,29.92,SSW,203,1.8,1.8,84,0.00,,,0.00,WUHU216HW,2013-07-09 15:28:00,
2013-07-09 10:33:00,77.9,72.7,29.92,SW,225,0.2,1.8,84,0.00,,,0.00,WUHU216HW,2013-07-09 15:33:00,
2013-07-09 10:38:00,77.8,72.5,29.92,SE,135,0.4,1.3,84,0.00,,,0.00,WUHU216HW,2013-07-09 15:38:00,
2013-07-09 10:43:00,77.6,72.4,29.92,WSW,248,0.0,1.8,84,0.00,,,0.00,WUHU216HW,2013-07-09 15:43:00,
2013-07-09 10:48:00,77.4,72.5,29.92,SW,225,0.2,1.8,85,0.00,,,0.00,WUHU216HW,2013-07-09 15:48:00,
2013-07-09 10:53:00,77.0,72.2,29.92,WSW,248,0.2,0.9,85,0.00,,,0.00,WUHU216HW,2013-07-09 15:53:00,
2013-07-09 10:58:00,76.9,72.0,29.92,WNW,293,2.0,2.2,85,0.01,,,0.01,WUHU216HW,2013-07-09 15:58:00,
2013-07-09 11:03:00,76.3,72.2,29.92,ESE,113,0.4,2.2,87,0.07,,,0.07,WUHU216HW,2013-07-09 16:03:00,
2013-07-09 11:08:00,75.6,71.2,29.92,NW,315,1.1,2.9,86,0.10,,,0.10,WUHU216HW,2013-07-09 16:08:00,
2013-07-09 11:13:00,74.5,70.1,29.91,SE,135,0.9,2.9,86,0.12,,,0.12,WUHU216HW,2013-07-09 16:13:00,
2013-07-09 11:18:00,73.8,69.8,29.92,SSW,203,1.1,4.0,87,0.13,,,0.14,WUHU216HW,2013-07-09 16:18:00,
2013-07-09 11:23:00,73.4,69.4,29.92,SSW,203,2.5,4.0,87,0.14,,,0.15,WUHU216HW,2013-07-09 16:23:00,
2013-07-09 11:28:00,73.1,69.0,29.92,South,180,1.8,3.4,87,0.14,,,0.15,WUHU216HW,2013-07-09 16:28:00,
2013-07-09 11:33:00,73.3,69.5,29.92,South,180,1.1,4.0,88,0.14,,,0.15,WUHU216HW,2013-07-09 16:33:00,
2013-07-09 11:38:00,73.4,69.7,29.92,SSE,158,4.0,4.0,88,0.14,,,0.15,WUHU216HW,2013-07-09 16:38:00,
2013-07-09 11:43:00,73.4,69.7,29.92,SSW,203,1.1,4.0,88,0.14,,,0.15,WUHU216HW,2013-07-09 16:43:00,
2013-07-09 11:48:00,73.4,69.4,29.92,SSW,203,0.7,2.5,87,0.15,,,0.16,WUHU216HW,2013-07-09 16:48:00,
2013-07-09 11:53:00,73.4,69.4,29.91,SSE,158,0.0,2.5,87,0.14,,,0.16,WUHU216HW,2013-07-09 16:53:00,
2013-07-09 11:58:00,73.8,69.8,29.90,South,180,0.4,2.0,87,0.10,,,0.16,WUHU216HW,2013-07-09 16:58:00,
2013-07-09 12:03:00,74.3,70.3,29.90,SE,135,1.1,1.1,87,0.08,,,0.16,WUHU216HW,2013-07-09 17:03:00,
2013-07-09 12:08:00,74.5,70.5,29.90,SSE,158,0.7,1.1,87,0.03,,,0.16,WUHU216HW,2013-07-09 17:08:00,
2013-07-09 12:13:00,75.1,71.0,29.90,SW,225,0.4,0.9,87,0.03,,,0.16,WUHU216HW,2013-07-09 17:13:00,
2013-07-09 12:18:00,75.2,70.8,29.90,South,180,1.1,1.8,86,0.02,,,0.16,WUHU216HW,2013-07-09 17:18:00,
2013-07-09 12:23:00,75.6,71.2,29.89,South,180,1.1,1.8,86,0.01,,,0.16,WUHU216HW,2013-07-09 17:23:00,
2013-07-09 12:28:00,75.6,71.2,29.89,SSE,158,0.7,1.1,86,0.01,,,0.16,WUHU216HW,2013-07-09 17:28:00,
2013-07-09 12:33:00,76.0,71.2,29.88,SSE,158,3.4,3.4,85,0.01,,,0.16,WUHU216HW,2013-07-09 17:33:00,
2013-07-09 12:38:00,75.6,70.8,29.88,SE,135,2.7,4.0,85,0.01,,,0.16,WUHU216HW,2013-07-09 17:38:00,
2013-07-09 12:43:00,75.6,70.8,29.87,SE,135,2.5,4.0,85,0.01,,,0.16,WUHU216HW,2013-07-09 17:43:00,
2013-07-09 12:48:00,75.2,70.5,29.87,SE,135,2.5,2.5,85,0.00,,,0.16,WUHU216HW,2013-07-09 17:48:00,
2013-07-09 12:53:00,75.4,70.7,29.87,East,90,0.9,3.8,85,0.00,,,0.16,WUHU216HW,2013-07-09 17:53:00,
2013-07-09 12:58:00,75.6,70.8,29.87,ESE,113,0.7,3.8,85,0.00,,,0.16,WUHU216HW,2013-07-09 17:58:00,
2013-07-09 13:03:00,75.6,70.8,29.87,SSE,158,2.5,3.4,85,0.00,,,0.16,WUHU216HW,2013-07-09 18:03:00,
2013-07-09 13:08:00,75.6,70.8,29.86,SSE,158,2.7,2.9,85,0.00,,,0.16,WUHU216HW,2013-07-09 18:08:00,
2013-07-09 13:13:00,75.4,70.7,29.86,SE,135,0.4,4.0,85,0.00,,,0.16,WUHU216HW,2013-07-09 18:13:00,
2013-07-09 13:18:00,75.1,70.3,29.86,East,90,1.1,4.0,85,0.00,,,0.16,WUHU216HW,2013-07-09 18:18:00,
2013-07-09 13:23:00,74.9,70.1,29.87,NNE,23,0.4,2.5,85,0.00,,,0.16,WUHU216HW,2013-07-09 18:23:00,
2013-07-09 13:28:00,74.7,69.9,29.87,SE,135,0.7,2.0,85,0.00,,,0.16,WUHU216HW,2013-07-09 18:28:00,
2013-07-09 13:33:00,74.5,69.8,29.87,North,0,0.2,0.9,85,0.00,,,0.16,WUHU216HW,2013-07-09 18:33:00,
2013-07-09 13:38:00,74.5,70.1,29.87,NNE,23,0.4,0.9,86,0.00,,,0.16,WUHU216HW,2013-07-09 18:38:00,
2013-07-09 13:43:00,74.5,70.1,29.87,NNE,23,0.0,0.4,86,0.00,,,0.16,WUHU216HW,2013-07-09 18:43:00,
2013-07-09 13:48:00,74.5,70.5,29.86,ENE,68,1.1,1.1,87,0.00,,,0.16,WUHU216HW,2013-07-09 18:48:00,
2013-07-09 13:53:00,74.5,70.5,29.87,ENE,68,0.4,1.1,87,0.00,,,0.16,WUHU216HW,2013-07-09 18:53:00,
2013-07-09 13:58:00,75.1,71.0,29.87,East,90,0.4,0.4,87,0.00,,,0.16,WUHU216HW,2013-07-09 18:58:00,
2013-07-09 14:03:00,75.6,71.5,29.87,East,90,1.6,2.5,87,0.00,,,0.16,WUHU216HW,2013-07-09 19:03:00,
2013-07-09 14:08:00,76.9,72.7,29.87,SE,135,1.1,3.4,87,0.00,,,0.16,WUHU216HW,2013-07-09 19:08:00,
2013-07-09 14:13:00,78.5,73.6,29.87,SSE,158,2.7,5.1,85,0.00,,,0.16,WUHU216HW,2013-07-09 19:13:00,
2013-07-09 14:18:00,79.4,74.2,29.87,ESE,113,3.1,5.1,84,0.00,,,0.16,WUHU216HW,2013-07-09 19:18:00,
2013-07-09 14:23:00,80.6,75.0,29.86,SW,225,0.7,4.7,83,0.00,,,0.16,WUHU216HW,2013-07-09 19:23:00,
2013-07-09 14:28:00,81.7,75.8,29.86,East,90,4.3,4.7,82,0.00,,,0.16,WUHU216HW,2013-07-09 19:28:00,
2013-07-09 14:33:00,81.7,74.6,29.85,SE,135,8.3,8.3,79,0.00,,,0.16,WUHU216HW,2013-07-09 19:33:00,
2013-07-09 14:38:00,81.2,74.2,29.85,SE,135,4.3,8.3,79,0.00,,,0.16,WUHU216HW,2013-07-09 19:38:00,
2013-07-09 14:43:00,80.8,73.4,29.85,SE,135,6.3,6.5,78,0.00,,,0.16,WUHU216HW,2013-07-09 19:43:00,
2013-07-09 14:48:00,80.1,73.1,29.85,SSE,158,4.7,6.5,79,0.00,,,0.16,WUHU216HW,2013-07-09 19:48:00,
2013-07-09 14:53:00,79.6,72.6,29.85,SSE,158,1.8,6.9,79,0.00,,,0.16,WUHU216HW,2013-07-09 19:53:00,
2013-07-09 14:58:00,80.1,73.8,29.85,SSE,158,5.4,6.9,81,0.00,,,0.16,WUHU216HW,2013-07-09 19:58:00,
2013-07-09 15:03:00,81.4,74.4,29.84,SSE,158,3.8,7.6,79,0.00,,,0.16,WUHU216HW,2013-07-09 20:03:00,
2013-07-09 15:08:00,82.4,75.8,29.84,SSE,158,6.5,7.6,80,0.00,,,0.16,WUHU216HW,2013-07-09 20:08:00,
2013-07-09 15:13:00,83.0,75.4,29.83,SSW,203,2.0,6.5,78,0.00,,,0.16,WUHU216HW,2013-07-09 20:13:00,
2013-07-09 15:18:00,83.5,76.0,29.83,West,270,4.0,5.6,78,0.00,,,0.16,WUHU216HW,2013-07-09 20:18:00,
2013-07-09 15:23:00,84.1,76.1,29.83,SE,135,4.3,5.4,77,0.00,,,0.16,WUHU216HW,2013-07-09 20:23:00,
2013-07-09 15:28:00,84.1,75.7,29.83,SSE,158,1.8,7.4,76,0.00,,,0.16,WUHU216HW,2013-07-09 20:28:00,
2013-07-09 15:33:00,84.1,76.1,29.83,SSE,158,1.1,7.4,77,0.00,,,0.16,WUHU216HW,2013-07-09 20:33:00,
2013-07-09 15:38:00,84.6,76.6,29.82,West,270,2.2,8.9,77,0.00,,,0.16,WUHU216HW,2013-07-09 20:38:00,
2013-07-09 15:43:00,85.5,77.5,29.82,SW,225,4.7,8.9,77,0.00,,,0.16,WUHU216HW,2013-07-09 20:43:00,
2013-07-09 15:48:00,86.0,77.2,29.82,SW,225,2.5,4.7,75,0.00,,,0.16,WUHU216HW,2013-07-09 20:48:00,
2013-07-09 15:53:00,86.4,77.6,29.82,SSW,203,3.8,4.7,75,0.00,,,0.16,WUHU216HW,2013-07-09 20:53:00,
2013-07-09 15:58:00,86.9,77.3,29.82,South,180,4.5,4.9,73,0.00,,,0.16,WUHU216HW,2013-07-09 20:58:00,
2013-07-09 16:03:00,88.0,78.7,29.82,SSW,203,3.1,4.9,74,0.00,,,0.16,WUHU216HW,2013-07-09 21:03:00,
2013-07-09 16:08:00,88.9,78.8,29.82,West,270,1.8,4.3,72,0.00,,,0.16,WUHU216HW,2013-07-09 21:08:00,
2013-07-09 16:13:00,88.9,77.9,29.82,East,90,1.1,6.9,70,0.00,,,0.16,WUHU216HW,2013-07-09 21:13:00,
2013-07-09 16:18:00,88.9,77.9,29.82,WNW,293,0.4,6.9,70,0.00,,,0.16,WUHU216HW,2013-07-09 21:18:00,
2013-07-09 16:23:00,89.3,77.9,29.81,SSE,158,2.5,4.3,69,0.00,,,0.16,WUHU216HW,2013-07-09 21:23:00,
2013-07-09 16:28:00,89.6,78.2,29.82,WSW,248,1.1,4.3,69,0.00,,,0.16,WUHU216HW,2013-07-09 21:28:00,
2013-07-09 16:33:00,89.8,78.4,29.81,SSW,203,1.8,4.0,69,0.00,,,0.16,WUHU216HW,2013-07-09 21:33:00,
2013-07-09 16:38:00,89.8,78.4,29.81,West,270,1.8,4.0,69,0.00,,,0.16,WUHU216HW,2013-07-09 21:38:00,
2013-07-09 16:43:00,90.0,78.0,29.81,SSW,203,3.4,4.0,68,0.00,,,0.16,WUHU216HW,2013-07-09 21:43:00,
2013-07-09 16:48:00,90.0,78.0,29.81,WSW,248,0.4,4.0,68,0.00,,,0.16,WUHU216HW,2013-07-09 21:48:00,
2013-07-09 16:53:00,89.6,77.2,29.81,WSW,248,1.6,2.0,67,0.00,,,0.16,WUHU216HW,2013-07-09 21:53:00,
2013-07-09 16:58:00,88.9,76.2,29.81,NNW,338,3.8,3.8,66,0.00,,,0.16,WUHU216HW,2013-07-09 21:58:00,
2013-07-09 17:03:00,88.2,75.9,29.80,North,0,1.8,3.8,67,0.00,,,0.16,WUHU216HW,2013-07-09 22:03:00,
2013-07-09 17:08:00,88.6,76.2,29.80,North,0,1.1,2.5,67,0.00,,,0.16,WUHU216HW,2013-07-09 22:08:00,
2013-07-09 17:13:00,89.1,76.2,29.80,South,180,0.7,4.0,66,0.00,,,0.16,WUHU216HW,2013-07-09 22:13:00,
2013-07-09 17:18:00,89.5,76.6,29.80,SW,225,2.9,4.0,66,0.00,,,0.16,WUHU216HW,2013-07-09 22:18:00,
2013-07-09 17:23:00,88.9,76.2,29.80,SW,225,2.2,4.0,66,0.00,,,0.16,WUHU216HW,2013-07-09 22:23:00,
2013-07-09 17:28:00,88.9,75.6,29.79,NE,45,1.8,9.2,65,0.00,,,0.16,WUHU216HW,2013-07-09 22:28:00,
2013-07-09 17:33:00,88.9,75.2,29.79,West,270,6.0,9.2,64,0.00,,,0.16,WUHU216HW,2013-07-09 22:33:00,
2013-07-09 17:38:00,88.9,75.2,29.79,NE,45,2.0,6.0,64,0.00,,,0.16,WUHU216HW,2013-07-09 22:38:00,
2013-07-09 17:43:00,88.7,74.5,29.79,NNE,23,1.6,3.8,63,0.00,,,0.16,WUHU216HW,2013-07-09 22:43:00,
2013-07-09 17:48:00,88.6,74.9,29.79,WSW,248,4.7,4.7,64,0.00,,,0.16,WUHU216HW,2013-07-09 22:48:00,
2013-07-09 17:53:00,88.4,74.7,29.79,SW,225,1.3,5.6,64,0.00,,,0.16,WUHU216HW,2013-07-09 22:53:00,
2013-07-09 17:58:00,88.6,75.8,29.79,SW,225,0.7,5.6,66,0.00,,,0.16,WUHU216HW,2013-07-09 22:58:00,
2013-07-09 18:03:00,88.6,74.9,29.79,SSW,203,1.8,5.4,64,0.00,,,0.16,WUHU216HW,2013-07-09 23:03:00,
2013-07-09 18:08:00,88.2,74.5,29.79,South,180,1.8,5.4,64,0.00,,,0.16,WUHU216HW,2013-07-09 23:08:00,
2013-07-09 18:13:00,87.8,75.1,29.79,SSW,203,6.3,6.3,66,0.00,,,0.16,WUHU216HW,2013-07-09 23:13:00,
2013-07-09 18:18:00,87.5,74.7,29.79,SSW,203,1.8,7.2,66,0.00,,,0.16,WUHU216HW,2013-07-09 23:18:00,
2013-07-09 18:23:00,87.3,75.0,29.79,WSW,248,4.9,7.2,67,0.00,,,0.16,WUHU216HW,2013-07-09 23:23:00,
2013-07-09 18:28:00,87.3,75.0,29.79,SSW,203,3.4,4.9,67,0.00,,,0.16,WUHU216HW,2013-07-09 23:28:00,
2013-07-09 18:34:00,87.7,75.8,29.79,WSW,248,3.8,3.8,68,0.00,,,0.16,WUHU216HW,2013-07-09 23:34:00,
2013-07-09 18:39:00,87.7,75.3,29.79,South,180,1.6,5.1,67,0.00,,,0.16,WUHU216HW,2013-07-09 23:39:00,
2013-07-09 18:44:00,87.7,75.3,29.79,SSW,203,1.6,5.1,67,0.00,,,0.16,WUHU216HW,2013-07-09 23:44:00,
2013-07-09 18:49:00,87.7,74.9,29.79,ESE,113,2.5,8.7,66,0.00,,,0.16,WUHU216HW,2013-07-09 23:49:00,
2013-07-09 18:54:00,87.5,75.2,29.79,East,90,1.8,8.7,67,0.00,,,0.16,WUHU216HW,2013-07-09 23:54:00,
2013-07-09 18:59:00,87.1,74.9,29.79,SE,135,1.8,4.3,67,0.00,,,0.16,WUHU216HW,2013-07-09 23:59:00,
2013-07-09 19:04:00,86.8,74.5,29.79,SE,135,1.1,4.7,67,0.00,,,0.16,WUHU216HW,2013-07-10 00:04:00,
2013-07-09 19:09:00,86.4,74.2,29.79,SSE,158,1.8,4.7,67,0.00,,,0.16,WUHU216HW,2013-07-10 00:09:00,
2013-07-09 19:14:00,86.0,74.4,29.79,SW,225,1.1,4.7,68,0.00,,,0.16,WUHU216HW,2013-07-10 00:14:00,
2013-07-09 19:19:00,86.0,74.4,29.79,SW,225,1.8,4.7,68,0.00,,,0.16,WUHU216HW,2013-07-10 00:19:00,
2013-07-09 19:24:00,85.9,74.6,29.79,WNW,293,0.7,4.0,69,0.00,,,0.16,WUHU216HW,2013-07-10 00:24:00,
2013-07-09 19:29:00,85.7,74.4,29.79,SSW,203,2.9,3.4,69,0.00,,,0.16,WUHU216HW,2013-07-10 00:29:00,
2013-07-09 19:34:00,85.3,74.5,29.79,WSW,248,1.1,3.4,70,0.00,,,0.16,WUHU216HW,2013-07-10 00:34:00,
2013-07-09 19:39:00,85.1,74.3,29.79,South,180,0.9,3.4,70,0.00,,,0.16,WUHU216HW,2013-07-10 00:39:00,
2013-07-09 19:44:00,84.8,74.3,29.79,WSW,248,0.9,3.4,71,0.00,,,0.16,WUHU216HW,2013-07-10 00:44:00,
2013-07-09 19:49:00,84.2,73.8,29.79,South,180,0.4,5.1,71,0.00,,,0.16,WUHU216HW,2013-07-10 00:49:00,
2013-07-09 19:54:00,83.7,73.7,29.79,East,90,0.4,5.1,72,0.00,,,0.16,WUHU216HW,2013-07-10 00:54:00,
2013-07-09 19:59:00,83.5,73.5,29.79,WSW,248,2.5,2.7,72,0.00,,,0.16,WUHU216HW,2013-07-10 00:59:00,
2013-07-09 20:04:00,83.2,73.6,29.79,South,180,3.4,3.6,73,0.00,,,0.16,WUHU216HW,2013-07-10 01:04:00,
2013-07-09 20:09:00,82.6,73.1,29.79,South,180,1.1,3.6,73,0.00,,,0.16,WUHU216HW,2013-07-10 01:09:00,
2013-07-09 20:14:00,82.1,73.0,29.79,South,180,2.5,3.4,74,0.00,,,0.16,WUHU216HW,2013-07-10 01:14:00,
2013-07-09 20:19:00,81.7,72.2,29.79,SE,135,0.7,2.5,73,0.00,,,0.16,WUHU216HW,2013-07-10 01:19:00,
2013-07-09 20:24:00,81.5,72.5,29.79,SSE,158,1.1,1.8,74,0.00,,,0.16,WUHU216HW,2013-07-10 01:24:00,
2013-07-09 20:29:00,81.0,71.9,29.79,SW,225,0.0,1.8,74,0.00,,,0.16,WUHU216HW,2013-07-10 01:29:00,
2013-07-09 20:34:00,80.8,72.2,29.79,South,180,0.9,1.6,75,0.00,,,0.16,WUHU216HW,2013-07-10 01:34:00,
2013-07-09 20:39:00,80.5,71.8,29.79,South,180,0.0,1.1,75,0.00,,,0.16,WUHU216HW,2013-07-10 01:39:00,
2013-07-09 20:44:00,80.1,71.8,29.79,SSE,158,0.7,2.0,76,0.00,,,0.16,WUHU216HW,2013-07-10 01:44:00,
2013-07-09 20:49:00,79.7,71.5,29.79,SSW,203,0.4,2.5,76,0.00,,,0.16,WUHU216HW,2013-07-10 01:49:00,
2013-07-09 20:54:00,79.4,71.6,29.79,SW,225,0.7,2.5,77,0.00,,,0.16,WUHU216HW,2013-07-10 01:54:00,
2013-07-09 20:59:00,79.2,71.7,29.79,SSW,203,0.2,2.9,78,0.00,,,0.16,WUHU216HW,2013-07-10 01:59:00,
2013-07-09 21:04:00,78.8,71.4,29.79,WSW,248,0.4,2.9,78,0.00,,,0.16,WUHU216HW,2013-07-10 02:04:00,
2013-07-09 21:09:00,78.7,71.2,29.79,SW,225,0.9,2.0,78,0.00,,,0.16,WUHU216HW,2013-07-10 02:09:00,
2013-07-09 21:14:00,78.5,71.5,29.80,SSE,158,0.2,2.0,79,0.00,,,0.16,WUHU216HW,2013-07-10 02:14:00,
2013-07-09 21:19:00,78.3,71.6,29.80,South,180,1.3,1.3,80,0.00,,,0.16,WUHU216HW,2013-07-10 02:19:00,
2013-07-09 21:24:00,78.1,71.5,29.80,South,180,0.7,1.3,80,0.00,,,0.16,WUHU216HW,2013-07-10 02:24:00,
2013-07-09 21:29:00,78.1,71.8,29.80,WSW,248,0.0,1.1,81,0.00,,,0.16,WUHU216HW,2013-07-10 02:29:00,
2013-07-09 21:34:00,77.9,71.6,29.80,SW,225,1.8,1.8,81,0.00,,,0.16,WUHU216HW,2013-07-10 02:34:00,
2013-07-09 21:39:00,77.8,71.5,29.80,South,180,1.3,1.8,81,0.00,,,0.16,WUHU216HW,2013-07-10 02:39:00,
2013-07-09 21:44:00,77.8,71.5,29.81,SSW,203,0.9,2.5,81,0.00,,,0.16,WUHU216HW,2013-07-10 02:44:00,
2013-07-09 21:49:00,77.4,71.5,29.81,SSW,203,0.2,2.5,82,0.00,,,0.16,WUHU216HW,2013-07-10 02:49:00,
2013-07-09 21:54:00,77.2,71.3,29.81,SSW,203,0.0,1.1,82,0.00,,,0.16,WUHU216HW,2013-07-10 02:54:00,
2013-07-09 21:59:00,77.2,71.6,29.81,SSE,158,0.4,2.0,83,0.00,,,0.16,WUHU216HW,2013-07-10 02:59:00,
2013-07-09 22:04:00,77.0,71.5,29.81,SSE,158,0.4,2.0,83,0.00,,,0.16,WUHU216HW,2013-07-10 03:04:00,
2013-07-09 22:09:00,77.0,71.5,29.81,SSE,158,0.0,1.1,83,0.00,,,0.16,WUHU216HW,2013-07-10 03:09:00,
2013-07-09 22:14:00,76.9,71.3,29.82,SSE,158,0.0,0.7,83,0.00,,,0.16,WUHU216HW,2013-07-10 03:14:00,
2013-07-09 22:19:00,76.7,71.1,29.81,ESE,113,0.2,1.3,83,0.00,,,0.16,WUHU216HW,2013-07-10 03:19:00,
2013-07-09 22:24:00,76.5,70.9,29.81,ESE,113,0.7,1.3,83,0.00,,,0.16,WUHU216HW,2013-07-10 03:24:00,
2013-07-09 22:29:00,76.3,70.8,29.81,SSE,158,0.0,0.7,83,0.00,,,0.16,WUHU216HW,2013-07-10 03:29:00,
2013-07-09 22:34:00,76.1,70.7,29.82,SSE,158,0.0,1.3,83,0.00,,,0.16,WUHU216HW,2013-07-10 03:34:00,
2013-07-09 22:39:00,76.0,70.8,29.82,SSE,158,0.0,1.3,84,0.00,,,0.16,WUHU216HW,2013-07-10 03:39:00,
2013-07-09 22:44:00,75.8,70.7,29.82,SE,135,0.0,0.0,84,0.00,,,0.16,WUHU216HW,2013-07-10 03:44:00,
2013-07-09 22:49:00,75.6,70.8,29.82,SE,135,0.0,0.0,85,0.00,,,0.16,WUHU216HW,2013-07-10 03:49:00,
2013-07-09 22:54:00,75.2,70.5,29.82,NE,45,0.0,0.0,85,0.00,,,0.16,WUHU216HW,2013-07-10 03:54:00,
2013-07-09 22:59:00,75.1,70.3,29.82,NE,45,0.0,0.0,85,0.00,,,0.16,WUHU216HW,2013-07-10 03:59:00,
2013-07-09 23:01:00,75.1,70.3,29.82,NE,45,0.0,0.0,85,0.00,,,0.16,WUHU216HW,2013-07-10 04:01:00,
2013-07-09 23:06:00,74.9,70.1,29.82,SE,135,0.0,0.7,85,0.00,,,0.16,WUHU216HW,2013-07-10 04:06:00,
2013-07-09 23:11:00,74.5,69.8,29.82,SE,135,0.0,0.7,85,0.00,,,0.16,WUHU216HW,2013-07-10 04:11:00,
2013-07-09 23:16:00,74.3,69.9,29.82,SE,135,0.0,0.0,86,0.00,,,0.16,WUHU216HW,2013-07-10 04:16:00,
2013-07-09 23:21:00,74.2,69.8,29.82,NE,45,0.0,0.0,86,0.00,,,0.16,WUHU216HW,2013-07-10 04:21:00,
2013-07-09 23:26:00,74.2,70.1,29.82,NNW,338,0.2,0.2,87,0.00,,,0.16,WUHU216HW,2013-07-10 04:26:00,
2013-07-09 23:31:00,74.0,69.9,29.82,SW,225,0.0,1.1,87,0.00,,,0.16,WUHU216HW,2013-07-10 04:31:00,
2013-07-09 23:36:00,73.8,69.8,29.83,SSW,203,0.4,1.1,87,0.00,,,0.16,WUHU216HW,2013-07-10 04:36:00,
2013-07-09 23:41:00,73.8,69.8,29.83,SSE,158,0.0,1.1,87,0.00,,,0.16,WUHU216HW,2013-07-10 04:41:00,
2013-07-09 23:46:00,73.8,69.8,29.83,NNW,338,0.7,1.1,87,0.00,,,0.16,WUHU216HW,2013-07-10 04:46:00,
2013-07-09 23:51:00,73.8,69.8,29.83,NNW,338,0.0,1.1,87,0.00,,,0.16,WUHU216HW,2013-07-10 04:51:00,
2013-07-09 23:56:00,73.8,69.8,29.83,WNW,293,0.0,1.1,87,0.00,,,0.16,WUHU216HW,2013-07-10 04:56:00,